Mount Pleasant, MI

8:24 AM EST on February 19, 2017 (GMT -0500)
Mount Pleasant Municipal

Weather History for KMOP - November, 2012

Change the Weather History Date:

Thursday, November 1, 2012

  Actual Average (KAMN) Record (KAMN)
Temperature  
Mean Temperature 42 °F -  
Max Temperature 48 °F 56 °F 82 °F (1950)
Min Temperature 37 °F 36 °F 21 °F (2006)
Degree Days  
Heating Degree Days 22    
Moisture  
Dew Point 31 °F    
Average Humidity 66    
Maximum Humidity 86    
Minimum Humidity 42    
Precipitation  
Precipitation 0.00 in - - ()
Sea Level Pressure  
Sea Level Pressure 29.71 in    
Wind  
Wind Speed 9 mph (WNW)    
Max Wind Speed 16 mph    
Max Gust Speed 22 mph    
Visibility 10 miles    
Events      
Averages and records for this station are not official NWS values.
T = Trace of Precipitation, MM = Missing Value Source: NWS Daily Summary

Daily Weather History Graph

Daily Weather History Graph

Search for Another Location

Airport or City:

Trip Planner

Search our weather history database for the weather conditions in past years. The results will help you decide how hot, cold, wet, or windy it might be!

Date:

Astronomy

Nov. 01, 2012 Rise Set
Actual Time 8:15 AM EDT 6:29 PM EDT
Civil Twilight 7:45 AM EDT 6:59 PM EDT
Nautical Twilight 7:11 AM EDT 7:32 PM EDT
Astronomical Twilight 6:38 AM EDT 8:06 PM EDT
Moon 8:21 PM EDT (11/1) 10:51 AM EDT (11/1)
Length of Visible Light 11h 13m
Length of Day
10h 13m
Waning Gibbous, 93% of the Moon is Illuminated
Nov 1
Waning Gibbous
Nov 6
Last Quarter
Nov 13
New
Nov 20
First Quarter
Nov 28
Full

Hourly Weather History & Observations

Time (EDT) Temp. Windchill Dew Point Humidity Pressure Visibility Wind Dir Wind Speed Gust Speed Precip Events Conditions
12:15 AM 41.0 °F 37.1 °F 35.1 °F 79% 29.66 in 10.0 mi WNW 5.8 mph - N/A   Overcast
12:35 AM 41.0 °F 36.4 °F 35.1 °F 79% 29.66 in 10.0 mi WNW 6.9 mph - N/A   Overcast
1:15 AM 41.0 °F 34.3 °F 34.7 °F 78% 29.66 in 10.0 mi WNW 11.5 mph 17.3 mph N/A   Overcast
1:35 AM 40.8 °F 34.1 °F 34.7 °F 79% 29.66 in 10.0 mi WNW 11.5 mph 18.4 mph N/A   Overcast
2:15 AM 40.5 °F 34.1 °F 34.0 °F 78% 29.66 in 10.0 mi WNW 10.4 mph 17.3 mph N/A   Overcast
2:35 AM 40.3 °F 33.9 °F 34.0 °F 78% 29.66 in 10.0 mi WNW 10.4 mph - N/A   Overcast
2:55 AM 40.1 °F 33.2 °F 34.2 °F 79% 29.66 in 10.0 mi West 11.5 mph 18.4 mph N/A   Overcast
3:15 AM 40.1 °F 33.2 °F 34.0 °F 79% 29.67 in 10.0 mi WNW 11.5 mph - N/A   Overcast
3:35 AM 40.1 °F 34.7 °F 33.8 °F 78% 29.67 in 10.0 mi WNW 8.1 mph 17.3 mph N/A   Overcast
3:55 AM 40.1 °F 33.6 °F 33.8 °F 78% 29.67 in 10.0 mi West 10.4 mph 18.4 mph N/A   Overcast
4:15 AM 40.1 °F 33.6 °F 33.8 °F 78% 29.66 in 10.0 mi WNW 10.4 mph - N/A   Overcast
4:35 AM 40.1 °F 34.7 °F 33.4 °F 77% 29.66 in 10.0 mi WNW 8.1 mph 17.3 mph N/A   Overcast
4:55 AM 39.9 °F 32.9 °F 33.6 °F 78% 29.67 in 10.0 mi West 11.5 mph - N/A   Overcast
5:15 AM 39.7 °F 32.3 °F 33.8 °F 79% 29.67 in 10.0 mi West 12.7 mph 18.4 mph N/A   Overcast
5:35 AM 39.7 °F 33.2 °F 33.8 °F 79% 29.67 in 10.0 mi West 10.4 mph - N/A   Overcast
6:15 AM 39.4 °F 32.3 °F 33.8 °F 80% 29.68 in 10.0 mi West 11.5 mph 16.1 mph N/A   Overcast
6:35 AM 38.8 °F 32.6 °F 33.3 °F 80% 29.68 in 10.0 mi West 9.2 mph - N/A   Overcast
6:55 AM 37.9 °F 30.9 °F 33.1 °F 83% 29.68 in 10.0 mi West 10.4 mph - N/A   Overcast
7:15 AM 37.8 °F 31.3 °F 33.4 °F 84% 29.68 in 10.0 mi West 9.2 mph - N/A   Overcast
7:35 AM 37.8 °F 31.3 °F 33.4 °F 84% 29.69 in 10.0 mi West 9.2 mph - N/A   Overcast
8:15 AM 37.9 °F 33.5 °F 33.8 °F 85% 29.70 in 10.0 mi West 5.8 mph 9.2 mph N/A   Overcast
8:35 AM 37.9 °F 32.7 °F 34.0 °F 86% 29.71 in 10.0 mi West 6.9 mph - N/A   Overcast
8:55 AM 38.3 °F 34.8 °F 34.0 °F 84% 29.71 in 10.0 mi WNW 4.6 mph - N/A   Overcast
9:34 AM 39.2 °F 33.6 °F 32.0 °F 75% 29.72 in 10.0 mi NW 8.1 mph - N/A   Overcast
9:55 AM 39.4 °F 34.5 °F 32.0 °F 75% 29.72 in 10.0 mi West 6.9 mph - N/A   Mostly Cloudy
10:15 AM 40.6 °F 34.8 °F 32.2 °F 72% 29.72 in 10.0 mi West 9.2 mph - N/A   Scattered Clouds
10:35 AM 41.5 °F 35.0 °F 30.9 °F 66% 29.72 in 10.0 mi West 11.5 mph - N/A   Scattered Clouds
10:55 AM 41.7 °F 35.6 °F 30.2 °F 64% 29.72 in 10.0 mi NW 10.4 mph 17.3 mph N/A   Mostly Cloudy
11:15 AM 42.6 °F 37.2 °F 30.0 °F 61% 29.72 in 10.0 mi NW 9.2 mph 18.4 mph N/A   Mostly Cloudy
11:34 AM 43.9 °F 37.2 °F 30.0 °F 58% 29.72 in 10.0 mi WNW 13.8 mph 19.6 mph N/A   Mostly Cloudy
11:55 AM 44.2 °F 38.4 °F 29.3 °F 56% 29.72 in 10.0 mi WNW 11.5 mph 18.4 mph N/A   Scattered Clouds
12:15 PM 44.6 °F 40.2 °F 28.9 °F 54% 29.72 in 10.0 mi WNW 8.1 mph 17.3 mph N/A   Scattered Clouds
12:35 PM 44.4 °F 38.6 °F 30.9 °F 59% 29.72 in 10.0 mi West 11.5 mph 17.3 mph N/A   Scattered Clouds
1:15 PM 45.9 °F 42.9 °F 30.0 °F 54% 29.70 in 10.0 mi West 5.8 mph - N/A   Scattered Clouds
1:35 PM 47.1 °F - 29.8 °F 51% 29.70 in 10.0 mi NW 10.4 mph 17.3 mph N/A   Clear
1:55 PM 47.7 °F - 29.1 °F 49% 29.69 in 10.0 mi WNW 11.5 mph 17.3 mph N/A   Clear
2:15 PM 47.7 °F - 29.7 °F 50% 29.69 in 10.0 mi West 10.4 mph 16.1 mph N/A   Clear
2:35 PM 47.5 °F - 30.6 °F 52% 29.69 in 10.0 mi West 11.5 mph 17.3 mph N/A   Scattered Clouds
3:15 PM 47.8 °F - 30.6 °F 51% 29.68 in 10.0 mi West 16.1 mph 20.7 mph N/A   Scattered Clouds
3:35 PM 47.7 °F - 30.7 °F 52% 29.69 in 10.0 mi West 15.0 mph 19.6 mph N/A   Scattered Clouds
3:55 PM 47.7 °F - 29.3 °F 49% 29.69 in 10.0 mi West 16.1 mph 21.9 mph N/A   Scattered Clouds
4:35 PM 48.2 °F - 28.4 °F 46% 29.69 in 10.0 mi WNW 12.7 mph 18.4 mph N/A   Mostly Cloudy
4:55 PM 48.4 °F - 26.2 °F 42% 29.70 in 10.0 mi NW 11.5 mph 20.7 mph N/A   Overcast
5:15 PM 47.7 °F - 26.4 °F 44% 29.70 in 10.0 mi WNW 10.4 mph 17.3 mph N/A   Overcast
5:35 PM 46.9 °F - 27.5 °F 47% 29.71 in 10.0 mi WNW 8.1 mph 16.1 mph N/A   Overcast
5:55 PM 45.7 °F 40.2 °F 26.4 °F 47% 29.72 in 10.0 mi NW 11.5 mph 19.6 mph N/A   Overcast
6:15 PM 44.6 °F 39.2 °F 27.3 °F 51% 29.73 in 10.0 mi WNW 10.4 mph 17.3 mph N/A   Overcast
6:35 PM 43.7 °F 38.1 °F 27.1 °F 52% 29.73 in 10.0 mi WNW 10.4 mph 17.3 mph N/A   Overcast
6:55 PM 42.8 °F 36.6 °F 27.3 °F 54% 29.74 in 10.0 mi WNW 11.5 mph 18.4 mph N/A   Overcast
7:15 PM 42.3 °F 36.8 °F 27.5 °F 56% 29.75 in 10.0 mi NW 9.2 mph - N/A   Overcast
7:35 PM 41.9 °F 36.3 °F 28.2 °F 58% 29.76 in 10.0 mi WNW 9.2 mph 20.7 mph N/A   Overcast
7:55 PM 41.9 °F 37.5 °F 28.4 °F 59% 29.76 in 10.0 mi WNW 6.9 mph - N/A   Overcast
8:14 PM 41.5 °F 37.1 °F 28.4 °F 60% 29.76 in 10.0 mi West 6.9 mph - N/A   Overcast
8:35 PM 41.2 °F 36.6 °F 28.0 °F 60% 29.76 in 10.0 mi WNW 6.9 mph - N/A   Overcast
8:55 PM 41.0 °F 36.4 °F 27.5 °F 59% 29.77 in 10.0 mi WNW 6.9 mph - N/A   Overcast
9:15 PM 40.5 °F 35.8 °F 27.5 °F 60% 29.77 in 10.0 mi WNW 6.9 mph - N/A   Overcast
9:35 PM 40.3 °F 35.5 °F 28.0 °F 62% 29.78 in 10.0 mi WNW 6.9 mph - N/A   Mostly Cloudy
9:55 PM 40.1 °F 34.7 °F 28.2 °F 63% 29.78 in 10.0 mi West 8.1 mph - N/A   Mostly Cloudy
10:15 PM 40.1 °F 36.1 °F 28.8 °F 64% 29.78 in 10.0 mi West 5.8 mph - N/A   Overcast
10:35 PM 39.4 °F 35.2 °F 28.4 °F 65% 29.78 in 10.0 mi West 5.8 mph - N/A   Overcast
10:55 PM 39.4 °F 37.2 °F 27.7 °F 63% 29.78 in 10.0 mi West 3.5 mph - N/A   Overcast
11:15 PM 39.2 °F 35.9 °F 27.5 °F 63% 29.79 in 10.0 mi WNW 4.6 mph - N/A   Overcast
11:35 PM 39.4 °F 37.2 °F 28.4 °F 65% 29.79 in 10.0 mi West 3.5 mph - N/A   Overcast
11:55 PM 39.7 °F 34.9 °F 29.3 °F 66% 29.79 in 10.0 mi NW 6.9 mph - N/A   Overcast